Location: Unspecified
(0.0000°N, 0.0000°E)
Time: 08:01:11
(UTC+00:00)

CBERS-1 - Visible Passes

Search period start: 09 June 2023 00:00
Search period end: 19 June 2023 00:00
Orbit: 768 x 776 km, 98.8° (Epoch: 08 June)

Date Brightness Start Highest point End Pass type
(mag) Time Alt. Az. Time Alt. Az. Time Alt. Az.
09 Jun 6.3 03:09:11 10° NNE 03:10:23 18° NNE 03:10:23 18° NNE visible
10 Jun 6.2 04:15:03 10° NW 04:15:33 12° NW 04:15:33 12° NW visible
11 Jun 6.0 03:38:53 10° N 03:40:22 19° N 03:40:22 19° N visible
12 Jun 6.4 03:04:05 10° NNE 03:05:11 17° NNE 03:05:11 17° NNE visible
13 Jun 6.1 04:09:31 10° NNW 04:10:21 13° NW 04:10:21 13° NW visible
14 Jun 6.0 03:33:39 10° N 03:35:10 20° N 03:35:10 20° N visible
15 Jun 6.6 02:59:01 10° NNE 02:59:58 16° NNE 02:59:58 16° NNE visible
16 Jun 6.1 04:04:04 10° NNW 04:05:08 15° NNW 04:05:08 15° NNW visible
17 Jun 6.0 03:28:26 10° N 03:29:56 20° N 03:29:56 20° N visible
18 Jun 6.7 02:53:58 10° NNE 02:54:44 14° NE 02:54:44 14° NE visible
